Probability
0 0 0 0 0 0 0 0 0 0 0 0 0 0 0 0 0 0 0 0 0 0 0 0 0 0 0 0 0 0 0 0 0 0 0 0 0 0 0 0 0 0 0 0
0 0 0 0 0 0 0 0 0 0 0 0 0 0 0 0 0 0 0 0 0 0 0 0 0 0 0 0 0 0 0 0 0 0 0 0 0 0 0 0 0 0 0 0
0 0 0 0 0 0 0 0 0 0 0 0 0 0 0 0 0 0 0 0 0 0 0 0 0 0 0 0 0 0 0 0 0 0 0 0 0 0 0 0 0 0 0 0
0 0 0 0 0 0 0 0 0 0 0 0 0 0 0 0 0 0 0 0 0 0 0 0 0 0 0 0 0 0 0 0 0 0 0 0 0 0 0 0 0 0 0 0
0 0 0 0 0 0 0 0 0 0 0 0 0 0 0 0 0 0 0 0 0 0 0 0 0 0 0 0 0 0 0 0 0 0 0 0 0 0 0 0 0 0 0 0
0 0 0 0 0 0 0 0 0 0 0 0 0 0 0 0 0 0 0 0 0 0 0 0 0 0 0 0 0 0 0 0 0 0 0 0 0 0 0 0 0 0 0 0
0 0 0 0 0 0 0 0 0 0 0 0 0 0 0 0 0 0 0 0 0 0 0 0 0 0 0 0 0 0 0 0 0 0 0 0 0 0 0 0 0 0 0 0
0 0 0 0 0 0 0 0 0 0 0 0 0 0 0 0 0 0 0 0 0 0 0 0 0 0 0 0 0 0 0 0 0 0 0 0 0 0 0 0 0 0 0 0
0 0 0 0 0 0 0 0 0 0 0 0 0 0 0 0 0 0 0 0 0 0 0 0 0 0 0 0 0 0 0 0 0 0 0 0 0 0 0 0 0 0 0 0
0 0 0 0 0 0 0 0 0 0 0 0 0 0 0 0 0 0 0 0 0 0 0 0 0 0 0 0 0 0 0 0 0 0 0 0 0 0 0 0 0 0 0 0
0 0 0 0 0 0 0 0 0 0 0 0 0 0 0 0 0 0 0 0 0 0 0 0 0 0 0 0 0 0 0 0 0 0 0 0 0 0 0 0 0 0 0 0
0 0 0 0 0 0 0 0 0 0 0 0 0 0 0 0 0 0 0 0 0 0 0 0 0 0 0 0 0 0 0 0 0 0 0 0 0 0 0 0 0 0 0 0
0 0 0 0 0 0 0 0 0 0 0 0 0 0 0 0 0 0 0 0 0 0 0 0 0 0 0 0 0 0 0 0 0 0 0 0 0 0 0 0 0 0 0 0
0 0 0 0 0 0 0 0 0 0 0 0 0 0 0 0 0 0 0 0 0 0 0 0 0 0 0 0 0 0 0 0 0 0 0 0 0 0 0 0 0 0 0 0
0 0 0 0 0 0 0 0 0 0 0 0 0 0 0 0 0 0 0 0 0 0 0 0 0 0 0 0 0 0 0 0 0 0 0 0 0 0 0 0 0 0 0 0
0 0 0 0 0 0 0 0 0 0 0 0 0 0 0 0 0 0 0 0 0 0 0 0 0 0 0 0 0 0 0 0 0 0 0 0 0 0 0 0 0 0 0 0
0 0 0 0 0 0 0 0 0 0 0 0 0 0 0 0 0 0 0 0 0 0 0 0 0 0 0 0 0 0 0 0 0 0 0 0 0 0 0 0 0 0 0 0
0 0 0 0 0 0 0 0 0 0 0 0 0 0 0 0 0 0 0 0 0 0 0 0 0 0 0 0 0 0 0 0 0 0 0 0 0 0 0 0 0 0 0 0
0 0 0 0 0 0 0 0 0 0 0 0 0 0 0 0 0 0 0 0 0 0 0 0 0 0 0 0 0 0 0 0 0 0 0 0 0 0 0 0 0 0 0 0
0 0 0 0 0 0 0 0 0 0 0 0 0 0 0 0 0 0 0 0 0 0 0 0 0 0 0 0 0 0 0 0 0 0 0 0 0 0 0 0 0 0 0 0
0 0 0 0 0 0 0 0 0 0 0 0 0 0 0 0 0 0 0 0 0 0 0 0 0 0 0 0 0 0 0 0 0 0 0 0 0 0 0 0 0 0 0 0
0 0 0 0 0 0 0 0 0 0 0 0 0 0 0 0 0 0 0 0 0 0 0 0 0 0 0 0 0 0 0 0 0 0 0 0 0 0 0 0 0 0 0 0
0 0 0 0 0 0 0 0 0 0 0 0 0 0 0 0 0 0 0 0 0 0 0 0 0 0 0 0 0 0 0 0 0 0 0 0 0 0 0 0 0 0 0 0
0 0 0 0 0 0 0 0 0 0 0 0 0 0 0 0 0 0 0 0 0 0 0 0 0 0 0 0 0 0 0 0 0 0 0 0 0 0 0 0 0 0 0 0
0 0 0 0 0 0 0 0 0 0 0 0 0 0 0 0 0 0 0 0 0 0 0 0 0 0 0 0 0 0 0 0 0 0 0 0 0 0 0 0 0 0 0 0
0 0 0 0 0 0 0 0 0 0 0 0 0 0 0 0 0 0 0 0 0 0 0 0 0 0 0 0 0 0 0 0 0 0 0 0 0 0 0 0 0 0 0 0
0 0 0 0 0 0 0 0 0 0 0 0 0 0 0 0 0 0 0 0 0 0 0 0 0 0 0 0 0 0 0 0 0 0 0 0 0 0 0 0 0 0 0 0
Wind_Speed
2 1 2 4 4 4 6 7 6 5 2 1 4 3 0 1 1 3 4 4 4 3 3 3 3 4 4 4 4 5 5 6 6 6 7 7 7 7 7 8 9 7 8 8
6 6 5 8 9 8 7 7 7 5 3 3 5 3 2 1 2 3 3 4 4 4 4 4 3 4 4 4 4 5 5 5 5 6 6 7 7 7 7 7 7 7 7 7
5 6 6 8 7 9 7 6 6 6 1 6 4 4 2 1 1 2 3 3 4 4 3 2 3 3 3 3 4 5 5 5 5 6 6 6 7 7 7 6 6 6 6 6
7 5 6 5 4 1 5 7 6 5 2 4 4 3 2 2 1 1 3 3 3 3 2 2 4 3 2 3 5 5 5 5 5 5 6 6 5 6 6 5 5 5 6 6
4 6 5 7 4 3 3 6 8 8 6 6 5 4 6 6 3 1 2 2 2 2 2 3 4 3 3 4 5 5 5 5 5 5 5 6 6 5 4 4 4 4 5 5
5 5 4 7 8 4 2 6 7 9 9 8 7 5 4 7 5 2 2 2 2 3 3 3 3 2 2 4 6 5 5 5 5 4 4 5 5 5 4 3 4 3 4 5
5 6 2 8 7 5 2 4 4 6 8 10 9 3 5 8 6 3 3 1 1 2 2 2 2 2 3 5 5 5 4 3 4 4 4 4 4 4 4 4 4 4 4 4
4 4 0 8 6 5 3 2 1 4 7 8 7 5 6 6 5 4 3 3 1 2 1 1 1 2 3 5 4 3 2 2 2 3 4 4 3 4 4 5 5 5 4 4
2 2 5 7 7 5 4 4 2 4 5 7 7 7 7 6 5 4 3 3 2 1 1 1 2 2 2 4 3 2 1 1 1 2 2 3 4 5 5 5 4 4 4 4
4 4 4 9 10 7 5 5 3 3 6 7 7 7 7 6 5 5 4 3 3 3 3 2 3 2 2 3 2 2 1 1 0 2 3 3 3 3 4 4 5 5 5 5
6 8 5 4 7 8 7 6 6 5 6 7 8 8 8 6 6 5 5 4 4 3 1 1 2 3 3 3 2 3 3 2 2 3 2 2 3 2 3 3 2 2 3 4
5 5 5 4 0 5 7 8 8 7 7 8 8 8 8 7 6 6 5 5 5 4 3 3 3 3 4 3 2 4 1 2 1 2 2 1 2 3 3 2 3 3 4 3
5 7 5 5 4 3 6 8 9 8 8 8 8 8 8 7 6 6 6 6 6 6 5 4 3 3 4 5 3 4 2 2 2 1 1 1 2 2 3 2 0 1 2 3
8 8 7 6 6 5 6 7 8 9 9 9 8 8 8 7 7 7 7 6 6 5 5 5 4 4 4 5 4 4 2 1 2 2 1 1 1 1 2 3 3 2 2 2
15 12 9 8 8 7 5 5 7 9 9 10 9 9 9 9 8 8 7 7 6 6 6 6 5 5 4 4 4 5 3 2 3 2 2 2 2 1 1 2 2 3 3 2
17 15 15 13 11 10 8 7 8 9 9 10 10 10 10 9 8 7 8 8 7 8 7 6 6 6 6 5 4 3 2 2 2 2 2 3 3 3 2 2 2 2 3 4
17 17 17 17 16 14 12 10 9 10 10 10 10 10 11 10 10 9 8 9 8 8 7 7 7 6 6 6 5 4 4 5 6 3 3 3 3 3 3 3 3 3 3 4
13 13 14 15 16 16 16 15 12 11 10 10 10 11 12 12 12 11 9 9 9 8 8 7 7 7 7 7 5 4 4 4 5 5 4 4 3 3 3 3 3 3 4 4
14 15 16 16 16 16 16 15 15 13 11 10 10 11 12 12 11 11 11 11 11 11 9 8 9 8 7 8 7 4 3 3 4 5 4 5 4 3 3 3 3 4 5 6
14 15 16 16 17 16 16 15 16 14 12 10 9 10 11 12 11 11 11 11 10 8 8 9 9 7 7 8 9 5 5 5 4 4 4 4 4 4 4 4 4 4 4 5
14 15 16 17 17 17 17 17 15 14 13 11 9 9 9 9 10 10 10 9 8 10 10 12 9 7 7 7 11 6 6 5 5 4 4 4 4 4 4 4 4 4 4 4
14 14 16 16 17 17 17 17 17 16 15 12 9 8 7 8 9 9 10 8 6 11 9 7 7 9 10 10 7 6 6 5 5 4 4 4 4 4 4 4 4 4 4 4
13 14 15 15 16 16 17 17 18 17 16 14 11 8 7 6 5 6 7 6 6 11 9 7 10 13 15 9 7 7 7 6 5 5 5 4 4 4 4 4 4 4 4 4
12 13 14 14 15 14 16 17 18 16 17 15 12 10 8 5 4 4 4 7 10 12 8 10 15 16 15 8 6 6 7 7 6 5 5 5 5 4 4 4 4 3 4 4
11 12 13 13 12 11 13 15 16 16 16 14 17 16 11 7 5 4 3 3 7 10 7 10 15 17 12 7 7 7 6 6 6 6 6 5 4 4 4 3 3 4 4 4
10 9 8 10 9 8 9 9 10 11 12 13 14 13 13 10 9 6 4 2 4 7 6 5 8 11 9 8 7 7 7 6 7 6 6 5 5 5 4 4 5 4 4 4
9 8 6 6 7 7 8 8 8 10 10 12 13 13 13 12 11 11 9 6 2 2 3 3 5 7 7 7 7 7 6 5 6 6 6 6 5 5 5 6 5 4 4 4
Wind_Direction
59 37 299 287 269 249 260 291 312 3 356 85 124 126 153 261 334 3 17 18 24 28 28 6 34 38 27 26 30 38 39 30 19 20 19 20 22 25 27 25 28 26 28 26
241 205 247 261 251 239 249 263 276 287 278 127 122 147 221 267 18 1 20 21 16 27 38 5 35 45 32 32 38 46 46 36 22 23 20 19 21 22 25 26 24 25 26 25
298 160 255 261 232 221 223 230 244 261 256 134 165 193 222 298 320 343 28 27 18 20 38 358 47 51 42 41 46 47 45 43 32 27 25 25 22 21 22 24 19 18 21 23
287 265 273 91 81 151 234 241 231 237 166 162 188 181 207 230 264 338 37 31 21 7 6 18 56 45 48 74 65 50 37 41 41 33 23 20 23 24 21 17 13 14 18 18
294 310 287 132 135 155 233 262 228 215 200 180 180 202 222 194 178 64 47 29 20 350 344 36 51 36 21 61 75 59 37 36 43 37 26 17 17 19 15 8 9 19 19 21
299 298 326 101 113 124 241 268 204 190 187 179 185 229 209 154 147 144 99 45 2 329 9 33 39 31 10 62 71 61 42 35 40 44 38 24 13 7 6 9 8 23 29 32
263 278 324 112 126 149 248 18 102 171 178 179 197 211 113 130 140 143 134 121 308 315 45 35 15 358 42 64 69 67 54 40 36 35 53 46 10 358 7 11 13 25 34 42
230 257 169 139 159 207 269 58 170 184 181 182 191 157 134 143 146 159 164 161 224 309 44 86 36 352 76 85 86 87 77 58 57 51 35 38 22 8 15 14 17 25 28 33
308 350 124 184 210 237 285 296 244 182 181 180 185 173 164 167 169 175 187 168 175 237 275 210 126 47 67 108 115 120 107 92 95 101 90 46 27 22 18 16 17 19 21 25
290 282 229 203 216 238 248 263 270 194 181 182 188 182 176 180 180 180 195 179 177 214 231 196 124 128 113 124 154 178 176 190 141 84 76 75 44 30 38 23 16 13 16 15
267 276 265 207 205 222 230 235 241 216 193 187 189 190 185 189 192 187 185 177 189 222 222 199 177 167 148 153 202 220 203 180 144 115 100 95 93 49 49 73 58 26 8 9
258 331 352 0 121 211 226 226 227 218 204 192 191 196 194 195 191 188 188 188 190 189 199 242 210 169 156 162 229 265 235 118 114 136 144 151 148 133 58 82 102 74 52 39
306 325 327 325 320 264 240 232 224 219 211 201 198 199 201 197 188 186 194 201 196 187 194 226 220 190 167 168 214 265 267 164 148 144 156 198 188 172 168 174 159 13 22 49
358 337 311 310 305 284 254 241 230 223 216 209 204 201 203 204 198 193 198 203 202 196 194 208 216 208 179 169 197 242 254 152 155 172 215 245 238 208 162 165 175 191 214 229
352 341 329 329 321 311 288 256 239 229 220 215 208 205 204 207 207 200 197 199 202 204 202 206 209 206 183 178 204 228 227 187 178 188 205 234 232 213 209 183 168 157 152 182
346 352 353 342 326 312 295 268 251 243 231 221 214 210 208 207 208 204 198 196 204 209 207 206 207 197 180 182 206 229 215 171 174 201 226 226 220 216 211 202 185 170 160 159
360 354 347 338 331 322 310 288 264 253 244 231 221 213 210 208 209 210 205 200 205 211 207 206 202 189 178 182 199 210 207 186 188 211 240 239 226 218 209 200 195 174 145 139
357 347 340 333 328 322 316 308 293 268 250 242 226 215 213 213 212 210 207 205 206 210 213 211 194 182 179 183 201 216 215 187 183 202 219 228 229 224 216 206 197 171 154 161
360 353 346 340 334 326 319 312 305 294 272 247 234 223 217 216 214 210 207 209 210 211 208 205 200 190 183 187 196 204 228 230 204 203 207 208 214 232 231 220 213 198 172 164
358 355 350 344 340 334 326 319 311 302 292 269 245 232 223 217 211 211 212 215 211 202 192 192 191 193 197 190 184 196 214 227 225 216 210 203 202 215 223 218 211 204 190 178
353 353 351 348 343 339 334 328 321 311 301 288 263 245 233 221 211 211 215 220 210 191 188 191 189 186 194 187 181 194 206 216 216 216 217 210 208 216 225 222 209 201 199 195
347 347 347 347 344 341 339 336 332 326 317 305 287 266 250 232 220 218 218 212 199 188 184 183 185 186 189 182 181 194 202 212 213 209 214 215 211 215 223 227 220 207 199 197
339 340 340 342 342 341 341 342 340 336 331 322 312 296 271 251 230 222 226 208 192 189 186 185 187 189 188 183 184 191 200 208 211 209 209 212 214 216 222 229 225 214 204 199
332 333 333 335 336 341 343 342 339 338 337 335 331 327 315 293 268 244 228 207 201 190 191 190 187 189 186 192 195 198 202 203 204 206 208 207 208 213 218 220 220 216 212 209
324 325 328 331 334 338 338 338 339 342 344 345 341 339 334 325 313 299 270 223 195 184 190 190 186 186 188 197 200 204 205 202 197 194 200 203 203 206 214 219 218 218 216 214
312 313 318 321 325 329 332 336 337 340 342 345 339 337 337 337 333 331 320 289 197 189 191 180 183 189 198 203 205 207 205 201 195 191 189 189 197 200 205 218 233 228 222 221
302 303 305 312 322 328 327 329 332 335 341 344 335 335 339 343 345 343 340 336 334 199 204 194 187 194 201 205 208 209 206 200 187 181 185 190 196 206 210 212 212 217 220 222